Regional Weather Roundup
Issued by NWS

Home | Current Version | Previous Version | Text Only | Print | Product List | Glossary On
Versions: 1 2 3 4 5 6 7 8 9 10 11 12 13 14 15 16 17 18 19 20 21 22 23 24 25 26 27 28 29 30 31 32 33 34 35 36 37 38 39 40 41 42 43 44 45 46 47 48 49 50
000
ASUS45 KSLC 011910
RWRUT

UTAH REGIONAL WEATHER ROUNDUP
NATIONAL WEATHER SERVICE SALT LAKE CITY UT
100 PM MDT WED JUL 01 2015

UTZ001>011-023>025-012000-

NORTHERN UTAH

CITY           SKY/WX    TMP DP  RH WIND       PRES   REMARKS
BRIGHAM CITY   SUNNY     91  44  19 SE3       30.09F
HILL AFB       SUNNY     89  51  26 NW7       30.14S
LOGAN          SUNNY     90  48  23 CALM      30.10F
OGDEN          SUNNY     91  49  23 VRB3      30.10F
PROVO AIRPORT  SUNNY     88  52  29 W6        30.11F
SALT LAKE CITY PTSUNNY   92  51  24 NW6       30.07F
VERNAL         MOSUNNY   86  46  24 VRB3      30.16F
WENDOVER       SUNNY     93  50  22 SE7       30.09F HX  90
HEBER CITY     SUNNY     90  43  19 N7        30.17F
WEST JORDAN    SUNNY     91  54  27 N10       30.12S

$$

UTZ012>022-026-027-012000-

SOUTHERN/CENTRAL UTAH

CITY           SKY/WX    TMP DP  RH WIND       PRES   REMARKS
BLANDING       MOSUNNY   88  46  22 SW5       30.23F
BRYCE CANYON   SUNNY     85  46  25 VRB5      30.32F
CEDAR CITY     SUNNY     90  43  19 N5        30.15F
DELTA          SUNNY     92  46  20 NE6G18    30.10F
HANKSVILLE     PTSUNNY   99  41  13 N10       30.05S HX  94
MILFORD        SUNNY     96  47  18 N16G23    30.10F HX  92
MOAB/CYNLANDS  SUNNY     96  47  18 E8        30.02F HX  92
PRICE          MOSUNNY   92  45  19 VRB6      30.15F
ST GEORGE      CLEAR     99  54  22 W7        29.95F HX  96
KANAB          SUNNY     93  46  20 CALM      30.13F

$$

REGIONAL REPORTS     COLORADO/ARIZONA

CITY           SKY/WX    TMP DP  RH WIND       PRES   REMARKS
CRAIG, CO      CLOUDY    78  50  37 W9        30.26R
GRAND JUNCTION PTSUNNY   88  47  24 S10       30.08F
RIFLE          CLOUDY    87  49  26 NW18G26   30.15S
MONTROSE       PTSUNNY   89  49  25 W6        30.16F
CORTEZ         SUNNY     90  45  21 W5        30.16F
PAGE, AZ       SUNNY     98  43  15 NE5       30.00F HX  94
GRAND CANYON   SUNNY     85  53  33 CALM      30.24F
KINGMAN        SUNNY     92  54  27 SW15G26   30.05F HX  90
FLAGSTAFF      SUNNY     79  58  48 S14G20    30.28F

$$

REGIONAL REPORTS    NEVADA/IDAHO/WYOMING

CITY           SKY/WX    TMP DP  RH WIND       PRES   REMARKS
LAS VEGAS, NV  MOSUNNY  100  53  20 SW6       29.86F HX  98
ELY            SUNNY     89  42  19 VRB3      30.23F
ELKO           MOSUNNY   91  49  23 NE5       30.15F
POCATELLO, ID  SUNNY     88  53  30 VRB6      30.12S
BURLEY         SUNNY     87  56  34 W8        30.09S
EVANSTON, WY   MOSUNNY   84  42  22 SW10G16   30.30F
ROCK SPRINGS   NOT AVBL
KEMMERER       SUNNY     82  37  20 NW10G23   30.31F

$$



USA.gov is the U.S. government's official web portal to all federal, state and local government web resources and services.